Year,Month,Day,Hour,Minute,Value (Times are PST for temperature in C)
2013,08,24,00,00,17.10
2013,08,24,00,01,17.10
2013,08,24,00,02,17.20
2013,08,24,00,03,17.20
2013,08,24,00,04,17.20
2013,08,24,00,05,17.20
2013,08,24,00,06,17.20
2013,08,24,00,07,17.20
2013,08,24,00,08,17.20
2013,08,24,00,09,17.20
2013,08,24,00,10,17.20
2013,08,24,00,11,17.20
2013,08,24,00,12,17.20
2013,08,24,00,13,17.10
2013,08,24,00,14,17.10
2013,08,24,00,15,17.10
2013,08,24,00,16,17.10
2013,08,24,00,17,17.10
2013,08,24,00,18,17.10
2013,08,24,00,19,17.10
2013,08,24,00,20,17.10
2013,08,24,00,21,17.00
2013,08,24,00,22,17.00
2013,08,24,00,23,17.00
2013,08,24,00,24,17.00
2013,08,24,00,25,17.00
2013,08,24,00,26,17.00
2013,08,24,00,27,17.00
2013,08,24,00,28,17.00
2013,08,24,00,29,17.00
2013,08,24,00,30,17.00
2013,08,24,00,31,17.00
2013,08,24,00,32,17.00
2013,08,24,00,33,17.10
2013,08,24,00,34,17.10
2013,08,24,00,35,17.10
2013,08,24,00,36,17.10
2013,08,24,00,37,17.10
2013,08,24,00,38,17.10
2013,08,24,00,39,17.10
2013,08,24,00,40,17.10
2013,08,24,00,41,17.10
2013,08,24,00,42,17.20
2013,08,24,00,43,17.20
2013,08,24,00,44,17.20
2013,08,24,00,45,17.20
2013,08,24,00,46,17.20
2013,08,24,00,47,17.20
2013,08,24,00,48,17.30
2013,08,24,00,49,17.30
2013,08,24,00,50,17.30
2013,08,24,00,51,17.30
2013,08,24,00,52,17.30
2013,08,24,00,53,17.30
2013,08,24,00,54,17.30
2013,08,24,00,55,17.30
2013,08,24,00,56,17.20
2013,08,24,00,57,17.20
2013,08,24,00,58,17.20
2013,08,24,00,59,17.20
2013,08,24,01,00,17.20
2013,08,24,01,01,17.20
2013,08,24,01,02,17.20
2013,08,24,01,03,17.20
2013,08,24,01,04,17.20
2013,08,24,01,05,17.30
2013,08,24,01,06,17.30
2013,08,24,01,07,17.30
2013,08,24,01,08,17.30
2013,08,24,01,09,17.30
2013,08,24,01,10,17.30
2013,08,24,01,11,17.30
2013,08,24,01,12,17.30
2013,08,24,01,13,17.30
2013,08,24,01,14,17.30
2013,08,24,01,15,17.30
2013,08,24,01,16,17.30
2013,08,24,01,17,17.30
2013,08,24,01,18,17.30
2013,08,24,01,19,17.30
2013,08,24,01,20,17.30
2013,08,24,01,21,17.30
2013,08,24,01,22,17.30
2013,08,24,01,23,17.30
2013,08,24,01,24,17.40
2013,08,24,01,25,17.40
2013,08,24,01,26,17.40
2013,08,24,01,27,17.40
2013,08,24,01,28,17.40
2013,08,24,01,29,17.50
2013,08,24,01,30,17.50
2013,08,24,01,31,17.50
2013,08,24,01,32,17.40
2013,08,24,01,33,17.40
2013,08,24,01,34,17.40
2013,08,24,01,35,17.40
2013,08,24,01,36,17.40
2013,08,24,01,37,17.40
2013,08,24,01,38,17.40
2013,08,24,01,39,17.30
2013,08,24,01,40,17.30
2013,08,24,01,41,17.30
2013,08,24,01,42,17.30
2013,08,24,01,43,17.30
2013,08,24,01,44,17.30
2013,08,24,01,45,17.30
2013,08,24,01,46,17.30
2013,08,24,01,47,17.20
2013,08,24,01,48,17.20
2013,08,24,01,49,17.20
2013,08,24,01,50,17.20
2013,08,24,01,51,17.10
2013,08,24,01,52,17.10
2013,08,24,01,53,17.10
2013,08,24,01,54,17.10
2013,08,24,01,55,17.10
2013,08,24,01,56,17.00
2013,08,24,01,57,17.00
2013,08,24,01,58,17.00
2013,08,24,01,59,16.90
2013,08,24,02,00,16.90
2013,08,24,02,01,16.90
2013,08,24,02,02,16.90
2013,08,24,02,03,16.90
2013,08,24,02,04,16.90
2013,08,24,02,05,16.80
2013,08,24,02,06,16.80
2013,08,24,02,07,16.80
2013,08,24,02,08,16.80
2013,08,24,02,09,16.80
2013,08,24,02,10,16.80
2013,08,24,02,11,16.80
2013,08,24,02,12,16.70
2013,08,24,02,13,16.70
2013,08,24,02,14,16.60
2013,08,24,02,15,16.60
2013,08,24,02,16,16.60
2013,08,24,02,17,16.50
2013,08,24,02,18,16.50
2013,08,24,02,19,16.40
2013,08,24,02,20,16.40
2013,08,24,02,21,16.40
2013,08,24,02,22,16.40
2013,08,24,02,23,16.30
2013,08,24,02,24,16.30
2013,08,24,02,25,16.30
2013,08,24,02,26,16.30
2013,08,24,02,27,16.30
2013,08,24,02,28,16.20
2013,08,24,02,29,16.20
2013,08,24,02,30,16.20
2013,08,24,02,31,16.20
2013,08,24,02,32,16.20
2013,08,24,02,33,16.10
2013,08,24,02,34,16.10
2013,08,24,02,35,16.00
2013,08,24,02,36,16.00
2013,08,24,02,37,16.00
2013,08,24,02,38,16.00
2013,08,24,02,39,15.90
2013,08,24,02,40,15.90
2013,08,24,02,41,15.90
2013,08,24,02,42,15.90
2013,08,24,02,43,15.90
2013,08,24,02,44,15.90
2013,08,24,02,45,15.90
2013,08,24,02,46,15.90
2013,08,24,02,47,15.90
2013,08,24,02,48,15.90
2013,08,24,02,49,16.00
2013,08,24,02,50,16.00
2013,08,24,02,51,16.00
2013,08,24,02,52,16.00
2013,08,24,02,53,16.00
2013,08,24,02,54,16.10
2013,08,24,02,55,16.10
2013,08,24,02,56,16.10
2013,08,24,02,57,16.10
2013,08,24,02,58,16.10
2013,08,24,02,59,16.10
2013,08,24,03,00,16.10
2013,08,24,03,01,16.00
2013,08,24,03,02,16.00
2013,08,24,03,03,16.10
2013,08,24,03,04,16.10
2013,08,24,03,05,16.10
2013,08,24,03,06,16.10
2013,08,24,03,07,16.10
2013,08,24,03,08,16.10
2013,08,24,03,09,16.10
2013,08,24,03,10,16.10
2013,08,24,03,11,16.10
2013,08,24,03,12,16.10
2013,08,24,03,13,16.10
2013,08,24,03,14,16.10
2013,08,24,03,15,16.10
2013,08,24,03,16,16.10
2013,08,24,03,17,16.10
2013,08,24,03,18,16.10
2013,08,24,03,19,16.10
2013,08,24,03,20,16.10
2013,08,24,03,21,16.10
2013,08,24,03,22,16.10
2013,08,24,03,23,16.10
2013,08,24,03,24,16.20
2013,08,24,03,25,16.10
2013,08,24,03,26,16.10
2013,08,24,03,27,16.20
2013,08,24,03,28,16.20
2013,08,24,03,29,16.10
2013,08,24,03,30,16.20
2013,08,24,03,31,16.20
2013,08,24,03,32,16.20
2013,08,24,03,33,16.20
2013,08,24,03,34,16.20
2013,08,24,03,35,16.10
2013,08,24,03,36,16.10
2013,08,24,03,37,16.10
2013,08,24,03,38,16.10
2013,08,24,03,39,16.10
2013,08,24,03,40,16.10
2013,08,24,03,41,16.10
2013,08,24,03,42,16.10
2013,08,24,03,43,16.10
2013,08,24,03,44,16.10
2013,08,24,03,45,16.10
2013,08,24,03,46,16.10
2013,08,24,03,47,16.10
2013,08,24,03,48,16.10
2013,08,24,03,49,16.10
2013,08,24,03,50,16.10
2013,08,24,03,51,16.10
2013,08,24,03,52,16.10
2013,08,24,03,53,16.00
2013,08,24,03,54,16.00
2013,08,24,03,55,16.00
2013,08,24,03,56,16.00
2013,08,24,03,57,16.00
2013,08,24,03,58,16.00
2013,08,24,03,59,16.00
2013,08,24,04,00,16.00
2013,08,24,04,01,16.00
2013,08,24,04,02,16.00
2013,08,24,04,03,16.00
2013,08,24,04,04,16.10
2013,08,24,04,05,16.10
2013,08,24,04,06,16.10
2013,08,24,04,07,16.20
2013,08,24,04,08,16.20
2013,08,24,04,09,16.20
2013,08,24,04,10,16.20
2013,08,24,04,11,16.20
2013,08,24,04,12,16.20
2013,08,24,04,13,16.20
2013,08,24,04,14,16.20
2013,08,24,04,15,16.20
2013,08,24,04,16,16.20
2013,08,24,04,17,16.10
2013,08,24,04,18,16.10
2013,08,24,04,19,16.10
2013,08,24,04,20,16.10
2013,08,24,04,21,16.10
2013,08,24,04,22,16.00
2013,08,24,04,23,16.00
2013,08,24,04,24,16.00
2013,08,24,04,25,16.00
2013,08,24,04,26,15.90
2013,08,24,04,27,15.90
2013,08,24,04,28,15.90
2013,08,24,04,29,15.90
2013,08,24,04,30,15.90
2013,08,24,04,31,15.90
2013,08,24,04,32,15.80
2013,08,24,04,33,15.80
2013,08,24,04,34,15.80
2013,08,24,04,35,15.80
2013,08,24,04,36,15.80
2013,08,24,04,37,15.80
2013,08,24,04,38,15.70
2013,08,24,04,39,15.70
2013,08,24,04,40,15.70
2013,08,24,04,41,15.70
2013,08,24,04,42,15.70
2013,08,24,04,43,15.70
2013,08,24,04,44,15.70
2013,08,24,04,45,15.70
2013,08,24,04,46,15.80
2013,08,24,04,47,15.80
2013,08,24,04,48,15.80
2013,08,24,04,49,15.80
2013,08,24,04,50,15.80
2013,08,24,04,51,15.80
2013,08,24,04,52,15.80
2013,08,24,04,53,15.80
2013,08,24,04,54,15.80
2013,08,24,04,55,15.80
2013,08,24,04,56,15.80
2013,08,24,04,57,15.80
2013,08,24,04,58,15.80
2013,08,24,04,59,15.80
2013,08,24,05,00,15.80
2013,08,24,05,01,15.80
2013,08,24,05,02,15.90
2013,08,24,05,03,15.90
2013,08,24,05,04,15.80
2013,08,24,05,05,15.90
2013,08,24,05,06,15.90
2013,08,24,05,07,15.90
2013,08,24,05,08,15.90
2013,08,24,05,09,15.90
2013,08,24,05,10,15.90
2013,08,24,05,11,15.90
2013,08,24,05,12,15.80
2013,08,24,05,13,15.80
2013,08,24,05,14,15.80
2013,08,24,05,15,15.80
2013,08,24,05,16,15.90
2013,08,24,05,17,15.90
2013,08,24,05,18,15.90
2013,08,24,05,19,15.90
2013,08,24,05,20,15.90
2013,08,24,05,21,15.90
2013,08,24,05,22,15.90
2013,08,24,05,23,15.90
2013,08,24,05,24,15.90
2013,08,24,05,25,15.90
2013,08,24,05,26,15.90
2013,08,24,05,27,16.00
2013,08,24,05,28,16.00
2013,08,24,05,29,16.00
2013,08,24,05,30,16.00
2013,08,24,05,31,16.00
2013,08,24,05,32,15.90
2013,08,24,05,33,15.90
2013,08,24,05,34,15.90
2013,08,24,05,35,15.90
2013,08,24,05,36,15.90
2013,08,24,05,37,15.90
2013,08,24,05,38,15.90
2013,08,24,05,39,15.90
2013,08,24,05,40,15.80
2013,08,24,05,41,15.80
2013,08,24,05,42,15.80
2013,08,24,05,43,15.80
2013,08,24,05,44,15.80
2013,08,24,05,45,15.80
2013,08,24,05,46,15.80
2013,08,24,05,47,15.80
2013,08,24,05,48,15.80
2013,08,24,05,49,15.80
2013,08,24,05,50,15.80
2013,08,24,05,51,15.80
2013,08,24,05,52,15.80
2013,08,24,05,53,15.80
2013,08,24,05,54,15.80
2013,08,24,05,55,15.80
2013,08,24,05,56,15.80
2013,08,24,05,57,15.80
2013,08,24,05,58,15.80
2013,08,24,05,59,15.80
2013,08,24,06,00,15.80
2013,08,24,06,01,15.80
2013,08,24,06,02,15.70
2013,08,24,06,03,15.70
2013,08,24,06,04,15.70
2013,08,24,06,05,15.70
2013,08,24,06,06,15.70
2013,08,24,06,07,15.60
2013,08,24,06,08,15.60
2013,08,24,06,09,15.60
2013,08,24,06,10,15.60
2013,08,24,06,11,15.60
2013,08,24,06,12,15.60
2013,08,24,06,13,15.60
2013,08,24,06,14,15.50
2013,08,24,06,15,15.50
2013,08,24,06,16,15.50
2013,08,24,06,17,15.40
2013,08,24,06,18,15.40
2013,08,24,06,19,15.40
2013,08,24,06,20,15.40
2013,08,24,06,21,15.30
2013,08,24,06,22,15.30
2013,08,24,06,23,15.30
2013,08,24,06,24,15.30
2013,08,24,06,25,15.30
2013,08,24,06,26,15.20
2013,08,24,06,27,15.20
2013,08,24,06,28,15.20
2013,08,24,06,29,15.20
2013,08,24,06,30,15.10
2013,08,24,06,31,15.10
2013,08,24,06,32,15.00
2013,08,24,06,33,15.00
2013,08,24,06,34,15.00
2013,08,24,06,35,15.00
2013,08,24,06,36,15.00
2013,08,24,06,37,15.00
2013,08,24,06,38,15.00
2013,08,24,06,39,15.00
2013,08,24,06,40,15.00
2013,08,24,06,41,15.00
2013,08,24,06,42,15.00
2013,08,24,06,43,15.00
2013,08,24,06,44,15.00
2013,08,24,06,45,15.00
2013,08,24,06,46,14.90
2013,08,24,06,47,14.90
2013,08,24,06,48,14.90
2013,08,24,06,49,14.90
2013,08,24,06,50,14.90
2013,08,24,06,51,15.00
2013,08,24,06,52,15.00
2013,08,24,06,53,15.00
2013,08,24,06,54,15.00
2013,08,24,06,55,15.00
2013,08,24,06,56,15.00
2013,08,24,06,57,15.00
2013,08,24,06,58,15.00
2013,08,24,06,59,15.00
2013,08,24,07,00,15.00
2013,08,24,07,01,15.00
2013,08,24,07,02,15.00
2013,08,24,07,03,15.00
2013,08,24,07,04,15.00
2013,08,24,07,05,15.00
2013,08,24,07,06,15.00
2013,08,24,07,07,15.00
2013,08,24,07,08,15.00
2013,08,24,07,09,15.00
2013,08,24,07,10,15.00
2013,08,24,07,11,15.00
2013,08,24,07,12,15.00
2013,08,24,07,13,15.00
2013,08,24,07,14,15.00
2013,08,24,07,15,15.00
2013,08,24,07,16,15.00
2013,08,24,07,17,15.00
2013,08,24,07,18,15.00
2013,08,24,07,19,15.00
2013,08,24,07,20,15.00
2013,08,24,07,21,15.00
2013,08,24,07,22,15.10
2013,08,24,07,23,15.10
2013,08,24,07,24,15.10
2013,08,24,07,25,15.10
2013,08,24,07,26,15.10
2013,08,24,07,27,15.20
2013,08,24,07,28,15.20
2013,08,24,07,29,15.20
2013,08,24,07,30,15.20
2013,08,24,07,31,15.20
2013,08,24,07,32,15.20
2013,08,24,07,33,15.20
2013,08,24,07,34,15.20
2013,08,24,07,35,15.20
2013,08,24,07,36,15.30
2013,08,24,07,37,15.30
2013,08,24,07,38,15.30
2013,08,24,07,39,15.30
2013,08,24,07,40,15.30
2013,08,24,07,41,15.40
2013,08,24,07,42,15.40
2013,08,24,07,43,15.40
2013,08,24,07,44,15.40
2013,08,24,07,45,15.40
2013,08,24,07,46,15.40
2013,08,24,07,47,15.50
2013,08,24,07,48,15.50
2013,08,24,07,49,15.60
2013,08,24,07,50,15.60
2013,08,24,07,51,15.60
2013,08,24,07,52,15.70
2013,08,24,07,53,15.70
2013,08,24,07,54,15.70
2013,08,24,07,55,15.80
2013,08,24,07,56,15.80
2013,08,24,07,57,15.90
2013,08,24,07,58,15.90
2013,08,24,07,59,15.90
2013,08,24,08,00,16.00
2013,08,24,08,01,16.10
2013,08,24,08,02,16.10
2013,08,24,08,03,16.20
2013,08,24,08,04,16.20
2013,08,24,08,05,16.20
2013,08,24,08,06,16.30
2013,08,24,08,07,16.30
2013,08,24,08,08,16.30
2013,08,24,08,09,16.40
2013,08,24,08,10,16.40
2013,08,24,08,11,16.50
2013,08,24,08,12,16.50
2013,08,24,08,13,16.60
2013,08,24,08,14,16.60
2013,08,24,08,15,16.60
2013,08,24,08,16,16.70
2013,08,24,08,17,16.70
2013,08,24,08,18,16.80
2013,08,24,08,19,16.80
2013,08,24,08,20,16.80
2013,08,24,08,21,16.90
2013,08,24,08,22,16.90
2013,08,24,08,23,16.90
2013,08,24,08,24,17.00
2013,08,24,08,25,17.00
2013,08,24,08,26,17.00
2013,08,24,08,27,17.10
2013,08,24,08,28,17.10
2013,08,24,08,29,17.00
2013,08,24,08,30,17.00
2013,08,24,08,31,17.00
2013,08,24,08,32,16.90
2013,08,24,08,33,16.90
2013,08,24,08,34,16.90
2013,08,24,08,35,16.80
2013,08,24,08,36,16.80
2013,08,24,08,37,16.80
2013,08,24,08,38,16.80
2013,08,24,08,39,16.80
2013,08,24,08,40,16.80
2013,08,24,08,41,16.80
2013,08,24,08,42,16.80
2013,08,24,08,43,16.80
2013,08,24,08,44,16.80
2013,08,24,08,45,16.80
2013,08,24,08,46,16.80
2013,08,24,08,47,16.80
2013,08,24,08,48,16.80
2013,08,24,08,49,16.80
2013,08,24,08,50,16.80
2013,08,24,08,51,16.90
2013,08,24,08,52,16.90
2013,08,24,08,53,16.90
2013,08,24,08,54,17.00
2013,08,24,08,55,17.00
2013,08,24,08,56,17.00
2013,08,24,08,57,17.00
2013,08,24,08,58,17.10
2013,08,24,08,59,17.10
2013,08,24,09,00,17.10
2013,08,24,09,01,17.20
2013,08,24,09,02,17.20
2013,08,24,09,03,17.30
2013,08,24,09,04,17.30
2013,08,24,09,05,17.30
2013,08,24,09,06,17.40
2013,08,24,09,07,17.40
2013,08,24,09,08,17.50
2013,08,24,09,09,17.50
2013,08,24,09,10,17.60
2013,08,24,09,11,17.70
2013,08,24,09,12,17.70
2013,08,24,09,13,17.80
2013,08,24,09,14,17.80
2013,08,24,09,15,17.90
2013,08,24,09,16,17.90
2013,08,24,09,17,18.00
2013,08,24,09,18,18.00
2013,08,24,09,19,18.10
2013,08,24,09,20,18.10
2013,08,24,09,21,18.20
2013,08,24,09,22,18.20
2013,08,24,09,23,18.20
2013,08,24,09,24,18.20
2013,08,24,09,25,18.30
2013,08,24,09,26,18.30
2013,08,24,09,27,18.30
2013,08,24,09,28,18.30
2013,08,24,09,29,18.40
2013,08,24,09,30,18.40
2013,08,24,09,31,18.40
2013,08,24,09,32,18.40
2013,08,24,09,33,18.50
2013,08,24,09,34,18.50
2013,08,24,09,35,18.50
2013,08,24,09,36,18.60
2013,08,24,09,37,18.60
2013,08,24,09,38,18.60
2013,08,24,09,39,18.70
2013,08,24,09,40,18.70
2013,08,24,09,41,18.80
2013,08,24,09,42,18.80
2013,08,24,09,43,18.80
2013,08,24,09,44,18.80
2013,08,24,09,45,18.80
2013,08,24,09,46,18.90
2013,08,24,09,47,18.90
2013,08,24,09,48,18.90
2013,08,24,09,49,19.00
2013,08,24,09,50,19.00
2013,08,24,09,51,19.10
2013,08,24,09,52,19.20
2013,08,24,09,53,19.30
2013,08,24,09,54,19.30
2013,08,24,09,55,19.40
2013,08,24,09,56,19.40
2013,08,24,09,57,19.40
2013,08,24,09,58,19.40
2013,08,24,09,59,19.50
2013,08,24,10,00,19.40
2013,08,24,10,01,19.40
2013,08,24,10,02,19.40
2013,08,24,10,03,19.30
2013,08,24,10,04,19.30
2013,08,24,10,05,19.30
2013,08,24,10,06,19.30
2013,08,24,10,07,19.20
2013,08,24,10,08,19.20
2013,08,24,10,09,19.20
2013,08,24,10,10,19.20
2013,08,24,10,11,19.20
2013,08,24,10,12,19.30
2013,08,24,10,13,19.30
2013,08,24,10,14,19.30
2013,08,24,10,15,19.30
2013,08,24,10,16,19.40
2013,08,24,10,17,19.40
2013,08,24,10,18,19.40
2013,08,24,10,19,19.40
2013,08,24,10,20,19.40
2013,08,24,10,21,19.40
2013,08,24,10,22,19.40
2013,08,24,10,23,19.40
2013,08,24,10,24,19.40
2013,08,24,10,25,19.40
2013,08,24,10,26,19.40
2013,08,24,10,27,19.40
2013,08,24,10,28,19.40
2013,08,24,10,29,19.50
2013,08,24,10,30,19.50
2013,08,24,10,31,19.50
2013,08,24,10,32,19.60
2013,08,24,10,33,19.60
2013,08,24,10,34,19.60
2013,08,24,10,35,19.60
2013,08,24,10,36,19.60
2013,08,24,10,37,19.70
2013,08,24,10,38,19.70
2013,08,24,10,39,19.70
2013,08,24,10,40,19.70
2013,08,24,10,41,19.70
2013,08,24,10,42,19.70
2013,08,24,10,43,19.70
2013,08,24,10,44,19.70
2013,08,24,10,45,19.70
2013,08,24,10,46,19.70
2013,08,24,10,47,19.70
2013,08,24,10,48,19.70
2013,08,24,10,49,19.70
2013,08,24,10,50,19.70
2013,08,24,10,51,19.70
2013,08,24,10,52,19.60
2013,08,24,10,53,19.60
2013,08,24,10,54,19.50
2013,08,24,10,55,19.50
2013,08,24,10,56,19.50
2013,08,24,10,57,19.40
2013,08,24,10,58,19.40
2013,08,24,10,59,19.40
2013,08,24,11,00,19.40
2013,08,24,11,01,19.40
2013,08,24,11,02,19.40
2013,08,24,11,03,19.40
2013,08,24,11,04,19.40
2013,08,24,11,05,19.40
2013,08,24,11,06,19.40
2013,08,24,11,07,19.40
2013,08,24,11,08,19.40
2013,08,24,11,09,19.40
2013,08,24,11,10,19.50
2013,08,24,11,11,19.50
2013,08,24,11,12,19.60
2013,08,24,11,13,19.70
2013,08,24,11,14,19.70
2013,08,24,11,15,19.80
2013,08,24,11,16,19.80
2013,08,24,11,17,19.80
2013,08,24,11,18,19.80
2013,08,24,11,19,19.80
2013,08,24,11,20,19.80
2013,08,24,11,21,19.90
2013,08,24,11,22,19.90
2013,08,24,11,23,19.90
2013,08,24,11,24,19.90
2013,08,24,11,25,19.80
2013,08,24,11,26,19.80
2013,08,24,11,27,19.70
2013,08,24,11,28,19.50
2013,08,24,11,29,19.40
2013,08,24,11,30,19.40
2013,08,24,11,31,19.30
2013,08,24,11,32,19.30
2013,08,24,11,33,19.20
2013,08,24,11,34,19.20
2013,08,24,11,35,19.20
2013,08,24,11,36,19.20
2013,08,24,11,37,19.20
2013,08,24,11,38,19.20
2013,08,24,11,39,19.20
2013,08,24,11,40,19.20
2013,08,24,11,41,19.20
2013,08,24,11,42,19.30
2013,08,24,11,43,19.30
2013,08,24,11,44,19.20
2013,08,24,11,45,19.20
2013,08,24,11,46,19.20
2013,08,24,11,47,19.20
2013,08,24,11,48,19.20
2013,08,24,11,49,19.20
2013,08,24,11,50,19.20
2013,08,24,11,51,19.20
2013,08,24,11,52,19.20
2013,08,24,11,53,19.20
2013,08,24,11,54,19.20
2013,08,24,11,55,19.20
2013,08,24,11,56,19.20
2013,08,24,11,57,19.10
2013,08,24,11,58,19.20
2013,08,24,11,59,19.20
2013,08,24,12,00,19.30
2013,08,24,12,01,19.30
2013,08,24,12,02,19.30
2013,08,24,12,03,19.40
2013,08,24,12,04,19.40
2013,08,24,12,05,19.40
2013,08,24,12,06,19.40
2013,08,24,12,07,19.40
2013,08,24,12,08,19.40
2013,08,24,12,09,19.50
2013,08,24,12,10,19.50
2013,08,24,12,11,19.40
2013,08,24,12,12,19.30
2013,08,24,12,13,19.20
2013,08,24,12,14,19.10
2013,08,24,12,15,19.10
2013,08,24,12,16,19.10
2013,08,24,12,17,19.00
2013,08,24,12,18,19.10
2013,08,24,12,19,19.10
2013,08,24,12,20,19.10
2013,08,24,12,21,19.10
2013,08,24,12,22,19.10
2013,08,24,12,23,19.20
2013,08,24,12,24,19.20
2013,08,24,12,25,19.30
2013,08,24,12,26,19.30
2013,08,24,12,27,19.30
2013,08,24,12,28,19.30
2013,08,24,12,29,19.30
2013,08,24,12,30,19.40
2013,08,24,12,31,19.40
2013,08,24,12,32,19.30
2013,08,24,12,33,19.30
2013,08,24,12,34,19.20
2013,08,24,12,35,19.20
2013,08,24,12,36,19.20
2013,08,24,12,37,19.20
2013,08,24,12,38,19.20
2013,08,24,12,39,19.30
2013,08,24,12,40,19.40
2013,08,24,12,41,19.50
2013,08,24,12,42,19.50
2013,08,24,12,43,19.70
2013,08,24,12,44,19.80
2013,08,24,12,45,19.90
2013,08,24,12,46,20.00
2013,08,24,12,47,20.00
2013,08,24,12,48,20.10
2013,08,24,12,49,20.20
2013,08,24,12,50,20.20
2013,08,24,12,51,20.20
2013,08,24,12,52,20.20
2013,08,24,12,53,20.20
2013,08,24,12,54,20.30
2013,08,24,12,55,20.40
2013,08,24,12,56,20.50
2013,08,24,12,57,20.50
2013,08,24,12,58,20.50
2013,08,24,12,59,20.30
2013,08,24,13,00,20.20
2013,08,24,13,01,20.00
2013,08,24,13,02,19.90
2013,08,24,13,03,19.80
2013,08,24,13,04,19.70
2013,08,24,13,05,19.60
2013,08,24,13,06,19.60
2013,08,24,13,07,19.70
2013,08,24,13,08,19.80
2013,08,24,13,09,19.80
2013,08,24,13,10,19.90
2013,08,24,13,11,19.90
2013,08,24,13,12,19.90
2013,08,24,13,13,19.90
2013,08,24,13,14,20.00
2013,08,24,13,15,19.90
2013,08,24,13,16,19.90
2013,08,24,13,17,20.00
2013,08,24,13,18,20.00
2013,08,24,13,19,20.10
2013,08,24,13,20,20.20
2013,08,24,13,21,20.20
2013,08,24,13,22,20.10
2013,08,24,13,23,20.10
2013,08,24,13,24,20.10
2013,08,24,13,25,20.20
2013,08,24,13,26,20.10
2013,08,24,13,27,20.20
2013,08,24,13,28,20.10
2013,08,24,13,29,20.00
2013,08,24,13,30,20.00
2013,08,24,13,31,20.00
2013,08,24,13,32,20.00
2013,08,24,13,33,20.00
2013,08,24,13,34,19.90
2013,08,24,13,35,19.90
2013,08,24,13,36,19.90
2013,08,24,13,37,19.90
2013,08,24,13,38,19.80
2013,08,24,13,39,19.80
2013,08,24,13,40,19.70
2013,08,24,13,41,19.60
2013,08,24,13,42,19.60
2013,08,24,13,43,19.60
2013,08,24,13,44,19.60
2013,08,24,13,45,19.60
2013,08,24,13,46,19.70
2013,08,24,13,47,19.80
2013,08,24,13,48,19.80
2013,08,24,13,49,19.90
2013,08,24,13,50,19.90
2013,08,24,13,51,20.00
2013,08,24,13,52,20.00
2013,08,24,13,53,20.10
2013,08,24,13,54,20.10
2013,08,24,13,55,20.10
2013,08,24,13,56,20.10
2013,08,24,13,57,20.00
2013,08,24,13,58,20.00
2013,08,24,13,59,20.00
2013,08,24,14,00,20.00
2013,08,24,14,01,19.90
2013,08,24,14,02,19.80
2013,08,24,14,03,19.80
2013,08,24,14,04,19.80
2013,08,24,14,05,19.80
2013,08,24,14,06,19.90
2013,08,24,14,07,19.90
2013,08,24,14,08,20.00
2013,08,24,14,09,20.10
2013,08,24,14,10,20.10
2013,08,24,14,11,20.10
2013,08,24,14,12,20.00
2013,08,24,14,13,20.00
2013,08,24,14,14,20.00
2013,08,24,14,15,19.90
2013,08,24,14,16,19.70
2013,08,24,14,17,19.70
2013,08,24,14,18,19.50
2013,08,24,14,19,19.40
2013,08,24,14,20,19.30
2013,08,24,14,21,19.20
2013,08,24,14,22,19.10
2013,08,24,14,23,19.10
2013,08,24,14,24,19.10
2013,08,24,14,25,19.10
2013,08,24,14,26,19.00
2013,08,24,14,27,19.00
2013,08,24,14,28,19.00
2013,08,24,14,29,19.00
2013,08,24,14,30,19.00
2013,08,24,14,31,19.10
2013,08,24,14,32,19.10
2013,08,24,14,33,19.10
2013,08,24,14,34,19.10
2013,08,24,14,35,19.10
2013,08,24,14,36,19.10
2013,08,24,14,37,19.10
2013,08,24,14,38,19.10
2013,08,24,14,39,19.10
2013,08,24,14,40,19.10
2013,08,24,14,41,19.10
2013,08,24,14,42,19.10
2013,08,24,14,43,19.20
2013,08,24,14,44,19.20
2013,08,24,14,45,19.20
2013,08,24,14,46,19.30
2013,08,24,14,47,19.30
2013,08,24,14,48,19.30
2013,08,24,14,49,19.40
2013,08,24,14,50,19.40
2013,08,24,14,51,19.50
2013,08,24,14,52,19.60
2013,08,24,14,53,19.60
2013,08,24,14,54,19.70
2013,08,24,14,55,19.80
2013,08,24,14,56,19.80
2013,08,24,14,57,19.80
2013,08,24,14,58,19.70
2013,08,24,14,59,19.70
2013,08,24,15,00,19.70
2013,08,24,15,01,19.70
2013,08,24,15,02,19.70
2013,08,24,15,03,19.60
2013,08,24,15,04,19.60
2013,08,24,15,05,19.60
2013,08,24,15,06,19.60
2013,08,24,15,07,19.60
2013,08,24,15,08,19.60
2013,08,24,15,09,19.60
2013,08,24,15,10,19.60
2013,08,24,15,11,19.60
2013,08,24,15,12,19.60
2013,08,24,15,13,19.60
2013,08,24,15,14,19.60
2013,08,24,15,15,19.60
2013,08,24,15,16,19.60
2013,08,24,15,17,19.60
2013,08,24,15,18,19.60
2013,08,24,15,19,19.60
2013,08,24,15,20,19.60
2013,08,24,15,21,19.60
2013,08,24,15,22,19.60
2013,08,24,15,23,19.60
2013,08,24,15,24,19.60
2013,08,24,15,25,19.50
2013,08,24,15,26,19.50
2013,08,24,15,27,19.40
2013,08,24,15,28,19.40
2013,08,24,15,29,19.40
2013,08,24,15,30,19.40
2013,08,24,15,31,19.40
2013,08,24,15,32,19.40
2013,08,24,15,33,19.50
2013,08,24,15,34,19.50
2013,08,24,15,35,19.60
2013,08,24,15,36,19.60
2013,08,24,15,37,19.50
2013,08,24,15,38,19.60
2013,08,24,15,39,19.60
2013,08,24,15,40,19.60
2013,08,24,15,41,19.60
2013,08,24,15,42,19.70
2013,08,24,15,43,19.70
2013,08,24,15,44,19.80
2013,08,24,15,45,19.80
2013,08,24,15,46,19.90
2013,08,24,15,47,19.90
2013,08,24,15,48,20.00
2013,08,24,15,49,20.10
2013,08,24,15,50,20.20
2013,08,24,15,51,20.20
2013,08,24,15,52,20.20
2013,08,24,15,53,20.10
2013,08,24,15,54,20.00
2013,08,24,15,55,20.00
2013,08,24,15,56,19.90
2013,08,24,15,57,19.90
2013,08,24,15,58,19.80
2013,08,24,15,59,19.70
2013,08,24,16,00,19.60
2013,08,24,16,01,19.50
2013,08,24,16,02,19.50
2013,08,24,16,03,19.40
2013,08,24,16,04,19.40
2013,08,24,16,05,19.40
2013,08,24,16,06,19.40
2013,08,24,16,07,19.40
2013,08,24,16,08,19.40
2013,08,24,16,09,19.40
2013,08,24,16,10,19.50
2013,08,24,16,11,19.50
2013,08,24,16,12,19.60
2013,08,24,16,13,19.60
2013,08,24,16,14,19.60
2013,08,24,16,15,19.70
2013,08,24,16,16,19.70
2013,08,24,16,17,19.70
2013,08,24,16,18,19.70
2013,08,24,16,19,19.70
2013,08,24,16,20,19.70
2013,08,24,16,21,19.70
2013,08,24,16,22,19.70
2013,08,24,16,23,19.80
2013,08,24,16,24,19.70
2013,08,24,16,25,19.70
2013,08,24,16,26,19.60
2013,08,24,16,27,19.50
2013,08,24,16,28,19.40
2013,08,24,16,29,19.30
2013,08,24,16,30,19.20
2013,08,24,16,31,19.10
2013,08,24,16,32,19.00
2013,08,24,16,33,19.00
2013,08,24,16,34,18.90
2013,08,24,16,35,18.90
2013,08,24,16,36,18.80
2013,08,24,16,37,18.80
2013,08,24,16,38,18.80
2013,08,24,16,39,18.80
2013,08,24,16,40,18.80
2013,08,24,16,41,18.80
2013,08,24,16,42,18.70
2013,08,24,16,43,18.60
2013,08,24,16,44,18.60
2013,08,24,16,45,18.40
2013,08,24,16,46,18.30
2013,08,24,16,47,18.30
2013,08,24,16,48,18.20
2013,08,24,16,49,18.20
2013,08,24,16,50,18.20
2013,08,24,16,51,18.30
2013,08,24,16,52,18.20
2013,08,24,16,53,18.20
2013,08,24,16,54,18.20
2013,08,24,16,55,18.20
2013,08,24,16,56,18.20
2013,08,24,16,57,18.20
2013,08,24,16,58,18.20
2013,08,24,16,59,18.20
2013,08,24,17,00,18.20
2013,08,24,17,01,18.30
2013,08,24,17,02,18.30
2013,08,24,17,03,18.20
2013,08,24,17,04,18.20
2013,08,24,17,05,18.20
2013,08,24,17,06,18.20
2013,08,24,17,07,18.20
2013,08,24,17,08,18.20
2013,08,24,17,09,18.20
2013,08,24,17,10,18.20
2013,08,24,17,11,18.20
2013,08,24,17,12,18.20
2013,08,24,17,13,18.20
2013,08,24,17,14,18.20
2013,08,24,17,15,18.20
2013,08,24,17,16,18.20
2013,08,24,17,17,18.30
2013,08,24,17,18,18.30
2013,08,24,17,19,18.20